Location: Wildlife_Club
(35.6000°N, 81.4330°W)
Time: 16:29:43
(UTC-04:00)

A-11 Canister half - Pass Details

Date: 26 June 2019
Orbit: 1515 x 1685 km, 47.2° (Epoch: 15 July)

Event Time Altitude Azimuth Distance (km) Brightness Sun altitude
Rises 09:44:00 0° 220° (SW) 4,926 11.3 40.3°
Reaches altitude 10° 09:47:12 10° 218° (SW) 3,935 10.9 40.9°
Maximum altitude 09:57:11 66° 138° (SE) 1,778 10.5 43.0°
Drops below altitude 10° 10:06:56 10° 59° (ENE) 3,852 11.9 44.9°
Sets 10:10:02 0° 57° (ENE) 4,817 12.1 45.6°
